CAPE
0 0 0 0 0 0 0 0 0 0 0 0 0 0 0 0 0 0 0 0 0 0 0 0 0 0 0 0 140 896 1055 1014 758 554 562 422 223 36 10 0 0 0 0 7
0 0 0 0 0 0 0 0 0 0 0 0 0 0 0 0 0 0 0 0 0 0 0 0 0 0 0 0 0 18 732 993 844 721 650 509 342 165 59 33 20 52 61 81
0 0 0 0 0 0 0 0 0 0 0 0 0 0 0 0 0 0 0 0 0 0 0 0 0 0 0 0 0 0 1 291 665 974 771 654 602 492 307 288 342 431 378 333
0 0 0 0 0 0 0 0 0 0 0 0 0 0 0 0 0 0 0 0 0 0 0 0 0 0 0 0 0 0 0 273 727 1085 1032 1005 987 849 676 471 597 744 638 565
0 0 0 0 0 0 0 0 0 0 0 0 0 0 0 0 0 0 0 0 0 0 0 0 0 0 0 0 0 0 207 722 1038 1107 1162 1088 1179 1056 818 723 619 711 713 739
0 0 2 0 0 0 0 0 0 0 0 0 0 0 0 0 0 0 0 0 0 0 0 0 0 0 0 0 0 0 213 638 1085 1192 1228 1189 1242 1133 1040 823 695 540 587 371
0 0 0 1 20 12 38 12 10 12 8 0 0 0 0 0 0 0 0 0 0 0 0 0 0 0 0 0 0 0 71 444 1110 1270 1275 1256 1250 1131 1111 916 743 344 369 186
0 0 0 0 0 0 9 48 11 4 0 0 0 1 0 0 0 0 0 0 0 0 0 0 0 0 0 0 0 0 0 9 532 1206 1381 1358 1264 1194 1019 806 584 325 325 103
0 0 0 0 0 7 0 16 0 16 0 0 0 0 0 0 0 0 0 0 0 0 0 0 0 0 0 0 0 0 0 0 95 680 1352 1470 1398 1148 938 723 437 168 7 0
0 0 0 0 0 3 39 6 18 14 0 0 0 0 0 0 0 0 0 0 0 0 0 0 0 0 0 0 0 0 0 0 0 361 1228 1453 1410 997 642 514 297 36 0 0
0 0 0 0 0 0 22 8 18 1 10 0 0 0 0 0 0 0 0 0 0 0 0 0 0 0 0 0 0 0 0 0 5 500 1173 1336 1050 730 387 325 29 0 0 0
0 0 0 0 0 0 0 0 1 4 0 0 0 0 0 0 0 0 0 0 0 0 0 0 0 0 0 0 0 0 0 0 187 853 1121 921 685 323 148 11 0 0 0 0
0 0 0 0 0 1 0 0 0 0 0 0 0 0 0 0 0 0 0 0 0 0 0 0 0 0 0 0 0 0 12 399 823 1025 827 466 152 27 12 0 0 0 0 0
3 0 0 0 0 0 0 0 0 1 0 0 0 0 0 0 0 0 0 0 0 0 0 0 0 0 0 0 0 0 2 199 472 342 133 30 1 0 0 0 0 0 0 0
1 0 0 0 0 0 0 0 0 0 0 0 0 0 0 0 0 0 0 0 0 0 0 0 0 0 0 0 0 0 0 22 34 9 0 0 0 0 0 0 0 0 0 0
0 0 0 0 0 0 0 0 0 0 0 0 0 0 0 0 0 0 0 0 0 0 0 0 0 0 0 0 0 0 0 0 0 0 0 0 0 0 0 0 0 0 0 0
0 0 0 0 0 0 0 0 0 0 0 0 0 0 0 0 0 0 0 0 0 0 0 0 0 0 0 0 0 0 0 0 0 0 0 0 1 1 0 0 0 0 0 0
0 0 0 0 0 0 0 0 0 0 0 0 0 0 0 0 0 0 0 0 0 0 0 0 0 0 0 0 0 0 0 0 0 0 0 0 1 1 0 0 0 0 0 0
1 0 0 1 0 0 0 0 0 0 0 0 0 0 0 0 0 0 0 0 0 0 0 0 0 0 0 0 0 0 0 0 0 0 0 0 0 1 0 0 0 0 0 0
0 0 0 0 0 0 0 0 0 0 0 0 0 0 0 0 0 0 0 0 0 0 0 0 0 0 0 0 0 0 0 0 0 0 0 0 2 4 2 0 0 0 0 0
0 1 0 0 0 0 0 0 0 0 0 0 0 0 0 0 0 0 0 0 0 0 0 0 0 0 0 0 0 0 0 0 0 0 0 0 2 2 4 0 0 0 0 0
0 0 0 0 0 0 0 0 0 0 0 0 0 0 0 0 0 0 0 0 0 0 0 0 0 0 0 0 0 0 0 0 0 0 0 0 0 1 6 3 1 0 0 0
3 0 0 0 0 0 0 0 0 0 0 0 0 0 0 0 0 0 0 0 0 0 0 0 0 0 0 0 0 0 0 0 0 0 0 0 3 5 5 2 1 0 0 0
0 0 0 0 0 0 0 0 0 0 0 0 0 0 0 0 0 0 0 0 0 0 0 0 0 0 0 0 0 0 0 0 0 0 0 2 3 5 5 5 2 0 0 0
0 1 0 0 0 0 0 0 0 0 0 0 0 0 0 0 0 0 0 0 0 0 0 0 0 0 0 0 0 0 0 0 0 1 5 5 5 5 5 3 2 0 0 0
0 0 0 0 0 0 0 0 0 0 0 0 0 0 0 0 0 0 0 0 0 0 0 0 0 0 0 0 0 1 1 2 1 3 5 5 5 4 4 2 1 0 0 0
CIN
-0 -0 -0 -0 -0 -0 -0 -0 -0 -0 -0 -0 -0 -0 -0 -0 -0 -0 -0 -0 -0 -0 -0 -0 -0 -0 -0 -0 -431 -280 -329 -373 -472 -509 -471 -517 -561 -729 -728 -246 -0 -0 -2 -349
-0 -0 -0 -0 -0 -0 -0 -0 -0 -0 -0 -0 -0 -0 -0 -0 -0 -0 -0 -0 -0 -0 -0 -0 -0 -0 -0 -0 -0 -389 -306 -381 -458 -489 -497 -489 -541 -585 -570 -558 -560 -477 -435 -396
-0 -0 -0 -0 -0 -0 -0 -0 -0 -0 -0 -0 -0 -0 -0 -0 -0 -0 -0 -0 -0 -0 -0 -0 -0 -0 -0 -0 -0 -0 -67 -439 -469 -472 -454 -454 -407 -419 -461 -451 -418 -355 -316 -298
-0 -0 -0 -0 -0 -0 -0 -0 -0 -0 -0 -0 -0 -0 -0 -0 -0 -0 -0 -0 -0 -0 -0 -0 -0 -0 -0 -0 -0 -0 -0 -511 -524 -438 -405 -427 -380 -385 -459 -476 -374 -293 -255 -227
-0 -0 -0 -0 -0 -0 -0 -0 -0 -0 -0 -0 -0 -0 -0 -0 -0 -0 -0 -0 -0 -0 -0 -0 -0 -0 -0 -0 -0 -0 -519 -457 -426 -414 -411 -402 -389 -392 -434 -401 -373 -296 -245 -205
-0 -0 -3 -0 -0 -0 -0 -0 -0 -0 -0 -0 -0 -0 -0 -0 -0 -0 -0 -0 -0 -0 -0 -0 -0 -0 -0 -0 -0 -0 -455 -436 -380 -363 -363 -390 -378 -353 -377 -386 -357 -342 -286 -306
-0 -0 -0 -4 -2 -15 -2 -0 -1 -1 -3 -0 -0 -0 -0 -0 -0 -0 -0 -0 -0 -0 -0 -0 -0 -0 -0 -0 -0 -0 -454 -388 -359 -326 -297 -338 -341 -344 -347 -389 -368 -402 -328 -380
-0 -0 -0 -0 -0 -0 -5 -1 -2 -8 -0 -0 -0 -5 -0 -0 -0 -0 -0 -0 -0 -0 -0 -0 -0 -0 -0 -0 -0 -0 -0 -216 -350 -316 -289 -288 -294 -312 -325 -325 -372 -408 -358 -463
-0 -0 -0 -0 -0 -11 -0 -3 -0 -1 -0 -0 -0 -0 -0 -0 -0 -0 -0 -0 -0 -0 -0 -0 -0 -0 -0 -0 -0 -0 -0 -0 -333 -325 -280 -255 -284 -303 -324 -347 -401 -415 -260 -0
-0 -0 -0 -0 -0 -1 -3 -3 -1 -10 -1 -1 -0 -0 -0 -0 -0 -0 -0 -0 -0 -0 -0 -0 -0 -0 -0 -0 -0 -0 -0 -0 -0 -329 -286 -255 -266 -319 -376 -400 -381 -526 -0 -0
-0 -0 -0 -0 -2 -0 -4 -5 -5 -4 -0 -0 -0 -0 -0 -0 -0 -0 -0 -0 -0 -0 -0 -0 -0 -0 -0 -0 -0 -0 -0 -0 -384 -352 -314 -271 -340 -388 -451 -384 -515 -0 -0 -0
-0 -0 -0 -0 -0 -0 -0 -0 -0 -7 -0 -0 -0 -0 -0 -0 -0 -0 -0 -0 -0 -0 -0 -0 -0 -0 -0 -0 -0 -0 -0 -0 -424 -303 -291 -361 -391 -513 -523 -196 -0 -0 -0 -0
-0 -0 -0 -0 -0 -2 -0 -0 -0 -0 -0 -0 -0 -0 -0 -0 -0 -0 -0 -0 -0 -0 -0 -0 -0 -0 -0 -0 -0 -0 -494 -311 -251 -226 -283 -412 -550 -624 -585 -0 -0 -0 -0 -0
-4 -0 -0 -0 -0 -0 -0 -0 -0 -0 -0 -0 -0 -0 -0 -0 -0 -0 -0 -0 -0 -0 -0 -0 -0 -0 -0 -0 -0 -0 -133 -310 -251 -345 -480 -424 -0 -0 -0 -0 -0 -0 -0 -0
-6 -0 -0 -0 -0 -0 -0 -0 -0 -0 -0 -0 -0 -0 -0 -0 -0 -0 -0 -0 -0 -0 -0 -0 -0 -0 -0 -0 -0 -0 -0 -469 -449 -505 -0 -0 -0 -0 -0 -0 -0 -0 -0 -0
-0 -0 -0 -0 -0 -0 -0 -0 -0 -0 -0 -0 -0 -0 -0 -0 -0 -0 -0 -0 -0 -0 -0 -0 -0 -0 -0 -0 -0 -0 -0 -0 -0 -0 -0 -0 -0 -0 -0 -0 -0 -0 -0 -0
-0 -0 -0 -0 -0 -0 -0 -0 -0 -0 -0 -0 -0 -0 -0 -0 -0 -0 -0 -0 -0 -0 -0 -0 -0 -0 -0 -0 -0 -0 -0 -0 -0 -0 -0 -0 -0 -0 -0 -0 -0 -0 -0 -0
-0 -0 -0 -0 -0 -0 -0 -0 -0 -0 -0 -0 -0 -0 -0 -0 -0 -0 -0 -0 -0 -0 -0 -0 -0 -0 -0 -0 -0 -0 -0 -0 -0 -0 -0 -0 -0 -0 -0 -0 -0 -0 -0 -0
-0 -0 -0 -1 -0 -0 -0 -0 -0 -0 -0 -0 -0 -0 -0 -0 -0 -0 -0 -0 -0 -0 -0 -0 -0 -0 -0 -0 -0 -0 -0 -0 -0 -0 -0 -0 -0 -0 -0 -0 -0 -0 -0 -0
-0 -0 -0 -0 -0 -0 -0 -0 -0 -0 -0 -0 -0 -0 -0 -0 -0 -0 -0 -0 -0 -0 -0 -0 -0 -0 -0 -0 -0 -0 -0 -0 -0 -0 -0 -0 -0 -0 -0 -0 -0 -0 -0 -0
-0 -0 -0 -0 -0 -0 -0 -0 -0 -0 -0 -0 -0 -0 -0 -0 -0 -0 -0 -0 -0 -0 -0 -0 -0 -0 -0 -0 -0 -0 -0 -0 -0 -0 -0 -0 -0 -0 -0 -0 -0 -0 -0 -0
-0 -0 -0 -0 -0 -0 -0 -0 -0 -0 -0 -0 -0 -0 -0 -0 -0 -0 -0 -0 -0 -0 -0 -0 -0 -0 -0 -0 -0 -0 -0 -0 -0 -0 -0 -0 -0 -0 -0 -0 -0 -0 -0 -0
-2 -0 -0 -0 -0 -0 -0 -0 -0 -0 -0 -0 -0 -0 -0 -0 -0 -0 -0 -0 -0 -0 -0 -0 -0 -0 -0 -0 -0 -0 -0 -0 -0 -0 -0 -0 -0 -0 -0 -0 -0 -0 -0 -0
-0 -0 -0 -0 -0 -0 -0 -0 -0 -0 -0 -0 -0 -0 -0 -0 -0 -0 -0 -0 -0 -0 -0 -0 -0 -0 -0 -0 -0 -0 -0 -0 -0 -0 -0 -0 -0 -0 -0 -0 -0 -0 -0 -0
-0 -1 -0 -0 -0 -0 -0 -0 -0 -0 -0 -0 -0 -0 -0 -0 -0 -0 -0 -0 -0 -0 -0 -0 -0 -0 -0 -0 -0 -0 -0 -0 -0 -0 -0 -0 -0 -0 -0 -0 -0 -0 -0 -0
-0 -0 -0 -0 -0 -0 -0 -0 -0 -0 -0 -0 -0 -0 -0 -0 -0 -0 -0 -0 -0 -0 -0 -0 -0 -0 -0 -0 -0 -0 -0 -0 -0 -0 -0 -0 -0 -0 -0 -0 -0 -0 -0 -0
Wind_Speed
34 42 51 47 42 41 36 39 44 39 39 38 38 49 46 40 41 42 43 38 40 41 38 36 33 31 29 24 22 21 20 17 16 15 15 14 14 13 13 13 12 10 10 9
39 53 50 40 41 44 49 50 48 36 34 36 41 51 45 41 44 44 44 46 45 42 38 35 34 30 27 27 24 23 22 21 21 18 18 17 15 15 14 14 13 12 11 11
49 55 41 42 42 45 49 52 51 46 38 39 41 53 47 45 44 46 48 48 47 45 45 44 37 33 30 28 25 23 23 21 21 20 17 17 15 18 15 15 15 15 13 12
46 58 42 44 49 44 54 43 43 42 42 52 32 64 51 49 50 45 49 48 48 44 42 41 41 40 32 30 27 26 23 21 20 19 20 19 19 17 16 15 15 15 14 14
47 45 50 47 49 39 52 38 39 41 46 45 49 52 69 44 53 54 52 49 46 41 40 39 38 36 36 29 28 23 22 22 22 20 21 20 20 20 19 17 15 14 14 14
47 34 36 52 39 37 33 38 36 36 41 53 57 45 76 50 51 54 48 47 47 42 40 39 39 39 38 31 29 25 23 22 21 20 21 21 21 20 19 18 17 17 15 15
48 47 40 32 42 45 37 39 46 49 51 62 44 44 60 35 38 46 45 48 45 42 41 39 38 38 36 35 31 26 23 24 22 22 23 24 23 23 22 20 19 17 17 17
49 48 40 41 42 40 47 45 47 52 53 58 39 44 57 41 52 60 47 35 35 38 40 41 41 41 39 35 32 27 25 24 23 23 25 25 25 25 25 23 21 19 18 16
41 47 35 33 40 39 45 49 47 54 55 52 44 44 63 62 57 48 47 43 44 41 39 41 40 40 40 38 36 34 34 32 29 26 26 25 24 27 26 22 21 21 19 17
33 46 35 37 34 39 45 35 44 42 58 65 60 55 56 48 44 42 47 48 47 47 49 48 43 42 42 43 45 42 39 35 30 28 26 26 24 25 25 22 22 20 18 15
27 34 40 33 34 38 41 52 49 41 40 50 55 58 50 58 41 42 39 36 36 37 40 42 43 43 41 38 40 41 37 35 32 29 27 25 23 24 22 23 21 19 17 15
24 31 40 41 34 31 30 37 38 53 60 36 34 39 24 29 31 32 34 36 37 36 36 36 36 36 34 36 38 36 35 32 31 29 26 23 21 22 22 22 19 17 16 15
24 29 39 39 34 29 31 28 31 36 40 55 52 40 27 26 29 33 38 39 38 38 37 35 35 34 35 36 36 35 32 29 26 23 23 21 19 20 20 20 18 15 14 13
23 29 34 41 39 35 43 40 37 36 45 46 50 51 50 44 43 44 44 41 41 39 37 38 39 39 39 37 36 33 32 28 24 21 21 20 18 18 18 17 16 14 12 11
22 33 33 37 39 40 44 45 43 45 45 49 50 52 62 53 50 51 46 43 42 43 43 40 41 41 41 40 38 34 30 25 22 20 20 20 19 18 17 16 15 13 12 11
26 35 34 41 40 40 45 47 48 47 46 48 51 54 53 56 50 49 45 42 44 44 44 44 44 41 39 38 38 36 31 26 21 21 21 21 19 19 19 18 16 14 12 11
32 34 36 47 38 39 48 49 46 45 43 46 54 52 53 54 49 49 47 46 48 47 46 46 46 43 40 39 38 38 35 27 23 22 21 21 22 21 20 18 15 15 14 12
28 30 33 44 37 52 47 38 40 45 47 45 49 53 58 57 53 53 51 53 52 48 49 50 47 47 45 42 40 39 34 31 28 25 23 21 21 21 20 19 17 16 16 14
6 14 29 34 36 42 50 41 38 40 52 45 48 51 55 55 56 56 51 49 49 48 48 47 47 47 49 46 42 40 37 35 34 31 28 24 22 20 20 20 19 17 15 14
10 4 13 26 33 39 28 26 26 31 53 49 45 48 51 52 57 58 51 48 49 48 48 50 52 51 49 46 43 42 39 36 37 34 32 28 26 23 21 19 18 16 15 14
16 13 10 12 29 37 36 32 24 32 39 25 24 28 36 45 45 51 54 53 51 50 52 52 50 51 52 47 44 45 41 37 36 33 30 29 28 26 23 19 17 16 15 13
16 15 15 10 39 43 18 19 24 20 28 29 25 30 36 43 51 54 57 53 53 56 54 51 52 54 52 48 45 49 48 43 32 28 26 25 26 23 23 20 17 16 14 13
13 10 16 13 15 24 27 27 25 29 20 19 19 29 45 51 50 49 55 52 54 55 55 54 55 56 55 48 44 51 51 38 31 27 23 19 20 19 19 21 19 17 16 14
14 12 14 17 20 26 27 26 24 26 24 23 28 41 54 50 48 53 52 54 50 50 51 53 53 54 55 48 44 47 42 32 29 28 25 20 18 17 17 19 19 18 17 15
15 23 15 20 23 26 22 23 22 24 22 20 26 33 42 30 39 36 42 47 50 49 48 50 52 53 52 46 43 38 31 25 24 25 26 22 20 19 18 19 19 19 16 14
13 18 15 24 19 22 27 22 17 22 19 17 25 34 32 25 32 28 38 41 38 50 50 49 49 50 46 39 36 27 22 21 22 25 24 21 19 18 17 17 15 14 11 11
Wind_Direction
249 248 246 245 250 256 264 262 263 266 267 269 267 264 267 270 267 265 264 266 265 266 269 271 274 274 273 269 259 253 254 240 248 243 248 251 240 257 258 256 250 241 242 246
247 246 248 254 254 256 257 260 261 270 273 270 269 266 269 269 266 265 266 265 267 268 270 272 274 276 273 268 259 255 248 250 244 245 243 259 258 265 264 263 257 249 250 253
242 248 254 252 253 253 255 256 259 264 272 273 275 268 268 268 268 268 265 265 266 267 270 271 273 276 278 271 264 257 253 250 243 242 249 260 265 280 271 259 255 252 252 249
249 248 256 249 250 251 255 259 263 264 267 264 274 264 266 266 265 266 265 264 266 269 271 273 273 275 279 278 275 270 262 257 254 245 244 235 236 255 261 262 259 256 254 257
248 252 246 252 250 251 257 262 262 263 263 267 265 267 259 267 263 262 263 266 269 272 273 274 275 276 279 284 275 274 271 268 262 250 243 242 244 261 273 269 266 260 261 262
254 262 252 248 254 254 264 261 263 265 264 260 260 259 257 263 263 265 268 268 269 273 273 275 274 274 277 281 279 275 272 268 264 255 247 241 244 258 262 264 266 264 263 267
254 255 256 260 250 250 254 253 256 258 256 258 264 258 257 272 268 269 270 269 270 273 273 275 276 274 278 279 281 280 275 271 264 258 254 253 251 255 256 258 262 264 263 272
250 250 250 251 251 253 248 250 253 258 258 261 261 260 258 270 266 266 272 279 279 277 275 274 275 275 276 278 278 278 277 276 271 263 259 257 256 257 260 261 264 263 259 266
256 251 264 267 257 250 252 250 254 260 264 268 266 265 265 265 268 271 274 276 276 278 279 275 276 274 275 276 278 278 277 276 273 268 266 262 257 257 258 255 260 261 264 267
265 257 263 265 269 255 249 259 256 255 258 259 261 262 262 267 271 273 272 274 276 275 273 273 276 276 276 277 278 279 275 271 268 267 265 264 261 260 257 254 255 258 261 263
276 263 259 269 262 261 254 252 256 265 260 261 263 262 262 263 276 278 282 284 286 285 280 277 275 277 279 280 282 282 280 270 267 264 261 263 258 256 254 255 255 259 263 262
281 269 262 260 267 273 268 261 263 257 255 270 269 267 287 273 274 281 286 288 288 287 287 288 285 281 283 282 284 289 287 276 269 265 256 255 257 253 251 252 253 258 261 267
287 272 268 265 264 265 266 274 269 272 267 258 262 267 274 289 282 286 287 291 290 289 289 288 287 285 285 286 286 289 291 284 271 266 254 255 253 246 245 246 252 257 263 267
291 276 270 263 267 273 265 267 274 269 264 266 264 266 266 271 280 286 288 290 289 289 290 289 288 287 285 287 288 290 290 286 276 268 258 253 248 242 242 243 248 253 258 260
291 277 277 275 275 275 271 269 269 268 268 267 268 270 265 270 278 283 287 288 288 286 286 288 289 288 286 285 286 288 289 287 279 267 258 252 247 244 240 241 248 254 254 261
296 282 284 277 279 277 274 272 270 269 269 271 271 271 271 273 279 277 280 285 286 286 287 286 287 288 287 286 284 283 284 283 277 268 259 252 247 244 242 244 247 248 253 254
291 286 284 276 285 281 272 270 272 273 272 271 269 271 273 274 277 277 280 282 284 286 287 285 285 283 285 288 286 281 280 278 274 268 262 255 250 247 244 245 245 245 246 248
299 294 288 280 284 272 277 282 279 275 275 275 275 275 272 273 277 277 278 277 279 284 285 282 280 279 280 288 289 284 279 273 268 265 263 258 252 247 246 247 247 248 250 246
234 308 297 289 287 287 283 283 282 281 277 280 278 277 275 276 277 276 277 277 278 280 282 282 281 281 281 282 287 284 277 272 266 262 259 255 252 246 245 246 247 247 242 248
342 271 303 303 295 290 304 313 310 299 281 282 281 276 276 278 275 274 278 279 278 278 280 282 281 280 280 282 285 282 277 274 267 262 259 256 254 251 248 246 243 243 244 246
340 331 238 290 299 280 283 304 314 289 292 310 305 292 286 279 280 281 279 280 280 279 280 280 278 278 277 281 285 280 278 275 270 267 263 257 254 252 250 246 240 232 241 244
333 330 320 303 275 275 331 321 299 307 310 308 305 301 296 292 289 285 280 282 280 280 279 278 276 275 277 279 281 278 272 271 272 266 263 260 252 249 245 237 237 236 235 240
321 314 325 314 296 315 315 307 309 311 295 286 278 295 298 294 291 289 285 284 283 283 278 276 274 272 272 278 280 273 268 268 263 260 260 260 248 245 238 232 231 235 241 242
329 315 288 302 264 264 263 263 278 265 282 280 262 258 277 288 289 279 286 285 289 285 279 277 273 269 268 273 280 275 270 264 258 256 251 248 244 240 237 235 235 239 244 246
317 318 288 269 268 266 263 260 268 303 299 278 255 250 256 286 254 255 257 259 291 290 285 278 270 267 266 273 279 277 267 259 254 250 247 245 247 242 239 245 244 243 248 241
285 269 275 258 266 265 267 269 302 311 303 288 251 252 249 254 257 266 258 258 291 288 281 281 269 264 265 271 277 276 262 252 246 245 244 241 243 244 241 235 241 250 240 236